Location: Poughquag
(41.6090°N, 73.6820°W)
Time: 12:47:07
(UTC-04:00)

Tiros 1 - Pass Details

Date: 01 June 2020
Orbit: 630 x 664 km, 48.4° (Epoch: 06 July)

Event Time Altitude Azimuth Distance (km) Brightness Sun altitude
Rises 17:28:45 0° 297° (WNW) 2,951 11.5 29.9°
Reaches altitude 10° 17:31:08 10° 301° (WNW) 2,034 10.9 29.5°
Maximum altitude 17:35:45 61° 22° (NNE) 724 7.7 28.6°
Drops below altitude 10° 17:40:20 10° 103° (ESE) 2,010 9.2 27.8°
Sets 17:42:41 0° 107° (ESE) 2,912 10.0 27.3°
